Regional Weather Roundup
Issued by NWS

Home | Current Version | Previous Version | Graphics & Text | Print | Product List | Glossary On
Versions: 1 2 3 4 5 6 7 8 9 10 11 12 13 14 15 16 17 18 19 20 21 22 23 24 25 26 27 28 29 30 31 32 33 34 35 36 37 38 39 40 41 42 43 44 45 46 47 48 49 50
000
ASUS43 KMKX 221611
RWRWI

WISCONSIN REGIONAL WEATHER ROUNDUP
NATIONAL WEATHER SERVICE MILWAUKEE/SULLIVAN WI
1000 AM CST WED NOV 22 2017

NOTE: "FAIR" INDICATES FEW OR NO CLOUDS BELOW 12,000 FEET WITH NO
SIGNIFICANT WEATHER AND/OR OBSTRUCTIONS TO VISIBILITY.

WIZ001-002-006>008-014>016-023>028-221700-
NORTHWEST WISCONSIN

CITY           SKY/WX    TMP DP  RH WIND       PRES   REMARKS
SUPERIOR ARPT  CLOUDY    18  13  81 SW7       30.25F WCI   9
ASHLAND        CLOUDY    20  10  65 SW12      30.26F WCI   8
HAYWARD        CLOUDY    19  10  68 S10       30.25F WCI   7
SIREN          CLOUDY    20  13  74 SW8       30.26F WCI  10
CUMBERLAND     CLOUDY    19  12  73 S9        30.25F WCI   9
RICE LAKE      CLOUDY    20  13  73 S8        30.28F WCI  10
CHETEK         CLOUDY    19  12  72 S5        30.29F WCI  12
LADYSMITH      CLOUDY    20  12  70 SW8       30.29F WCI  11
EAU CLAIRE     SUNNY     19  10  68 SW6       30.32F WCI  11
MENOMONIE      SUNNY     22  12  66 S5        30.32S WCI  16
NEW RICHMOND   CLOUDY    21  13  72 S9        30.29S WCI  10
OSCEOLA        CLOUDY    20  13  75 S10       30.32R WCI   9
$$

WIZ003>005-009-010-017-018-221700-
NORTH CENTRAL WISCONSIN

CITY           SKY/WX    TMP DP  RH WIND       PRES   REMARKS
MANITOWISH WTR CLOUDY    18  10  71 SW9       30.22S WCI   7
ARBOR VITAE    CLOUDY    21  13  71 SW5       30.22S WCI  15
WOODRUFF       CLOUDY    21  13  71 SW5       30.22S WCI  15
RHINELANDER    CLOUDY    19  12  74 SW7       30.24R WCI  10
EAGLE RIVER    FLURRIES  19  11  72 W7        30.22R WCI  10
LAND O LAKES   FLURRIES  20  13  75 S6        30.23R WCI  12
PHILLIPS       CLOUDY    19  11  71 SW6       30.24F WCI  10
TOMAHAWK       SUNNY     19  10  68 CALM      30.25F
MEDFORD        SUNNY     19  11  70 SW7       30.26S WCI  10
MERRILL        SUNNY     22  11  62 SW5       30.27S WCI  16
$$

WIZ029-030-035-036-043>047-221700-
CENTRAL WISCONSIN

CITY           SKY/WX    TMP DP  RH WIND       PRES   REMARKS
WAUSAU         SUNNY     21  11  65 SW3       30.27F
MOSINEE        SUNNY     21  12  68 SW8       30.29F WCI  12
MARSHFIELD     SUNNY     21  11  65 SW8       30.29R WCI  11
STEVENS POINT  SUNNY     21  10  62 SW5       30.31S WCI  14
WAUPACA        SUNNY     27  13  54 W3        30.32F
WAUTOMA        SUNNY     23  13  65 CALM      30.33F
WISC RAPIDS    SUNNY     22  13  68 W6        30.33F WCI  14
CAMP DOUGLAS   SUNNY     23  12  63 W5        30.34F WCI  17
$$

WIZ011>013-019>022-031-037>040-048>050-221700-
NORTHEAST WISCONSIN

CITY           SKY/WX    TMP DP  RH WIND       PRES   REMARKS
ANTIGO         CLOUDY    20  12  71 W5        30.25S WCI  13
SHAWANO        CLOUDY    27  14  58 SW3       30.30S
OCONTO         CLOUDY    26  14  58 SW6       30.30S WCI  20
STURGEON BAY   CLOUDY    26  15  63 CALM      30.29F
GREEN BAY      CLOUDY    27  16  63 W8        30.31S WCI  19
MANITOWOC      NOT AVBL
APPLETON       MOSUNNY   25  12  58 W6        30.29F WCI  18
CLINTONVILLE   SUNNY     27  10  50 W7        30.31S WCI  19
OSHKOSH        SUNNY     25  15  66 W6        30.32S WCI  18
$$

WIZ032>034-041-042-053>061-221700-
SOUTHWEST WISCONSIN

CITY           SKY/WX    TMP DP  RH WIND       PRES   REMARKS
LA CROSSE      SUNNY     22  11  62 S6        30.37S WCI  14
SPARTA         SUNNY     22  13  68 S3        30.36S
VIROQUA        SUNNY     21  15  78 CALM      30.33R
BOSCOBEL       SUNNY     25  13  60 CALM      30.39R
PRAIRIE DU CHI SUNNY     23  13  64 SW5       30.38S WCI  17
PLATTEVILLE    SUNNY     24  17  73 CALM      30.36S
$$

WIZ056-057-062-063-064-067-068-221700-
SOUTH CENTRAL WISCONSIN

CITY           SKY/WX    TMP DP  RH WIND       PRES   REMARKS
REEDSBURG      SUNNY     22  12  66 CALM      30.35S
BARABOO/DELLS  SUNNY     23  13  65 SW3       30.34F
LONE ROCK      SUNNY     24  14  65 CALM      30.37F
MINERAL POINT  SUNNY     27  19  74 CALM      30.33F
MADISON        SUNNY     24  13  62 CALM      30.35S
MIDDLETON      SUNNY     26  15  64 W3        30.36S
WATERTOWN      SUNNY     24  16  70 W3        30.34S
MONROE         SUNNY     25  14  63 CALM      30.35R
JANESVILLE     SUNNY     27  18  69 CALM      30.36R
$$

WIZ051-052-058>065-066-070>072-221700-
SOUTHEAST WISCONSIN

CITY           SKY/WX    TMP DP  RH WIND       PRES   REMARKS
MILWAUKEE      MOSUNNY   29  13  51 CALM      30.34S
WAUKESHA       SUNNY     25  14  63 W5        30.34S WCI  19
MILWAUKEE/TIMM SUNNY     27  10  50 CALM      30.34F
RACINE         SUNNY     27  17  66 VRB5      30.36S WCI  22
BURLINGTON     SUNNY     30  21  70 SW5       30.35S WCI  25
KENOSHA        SUNNY     27  14  58 NW5       30.35R WCI  22
FOND DU LAC    SUNNY     26  13  57 CALM      30.33S
SHEBOYGAN      MIX PCPN  27  14  58 VRB3      30.32S
WEST BEND      SUNNY     27  12  54 CALM      30.32S
JUNEAU         SUNNY     23  14  69 S3        30.34S
$$

LSZ147-162-221700-
LAKE SUPERIOR

STATION/POSITION TIME  TEMP    WIND        PRES    WAVE
                       AIR SEA DIR/SP/G            HT/PER
                 (UTC) (F)     (DEG/KT/KT) (MB)    (FT/S)
DEVILS ISLAND    1600   22     230/ 18/ 22 1025.0F
SAXON HARBOR     1530   21     220/  9/ 13 1024.7S
$$

LMZ867-665-643>646-221700-
LAKE MICHIGAN

STATION/POSITION TIME  TEMP    WIND        PRES    WAVE
                       AIR SEA DIR/SP/G            HT/PER
                 (UTC) (F)     (DEG/KT/KT) (MB)    (FT/S)
N MID LAKE BUOY  1550   30 47  330/  4/  8 1026.3R   2/ 4
NORTHPORT PIER   1552   29     340/  5/ 10 1025.1S
KEWAUNEE LAKESHO 1548   28      20/  2/  5 1025.5S
SHEBOYGAN LAKESH 1600   26     240/  1/  3 1027.7S
PORT WASHINGTON  1540   27     310/  4/  7 1028.1F
MILWAUKEE LAKESH 1550   28     190/  3/  4   N/A
S MID LAKE BUOY  1450   31 47   40/  4/  8 1027.3R   3/ 6
KENOSHA   LAKESH 1600   27     290/  5/  8 1027.8
$$

TC  - TEMPERATURE IN CELSIUS
VSB - VISIBILITY IN STATUTE MILES
WCI - WIND CHILL INDEX
HX  - HEAT INDEX





USA.gov is the U.S. government's official web portal to all federal, state and local government web resources and services.